TimeEDT,TemperatureF,Dew PointF,Humidity,Sea Level PressureIn,VisibilityMPH,Wind Direction,Wind SpeedMPH,Gust SpeedMPH,PrecipitationIn,Events,Conditions,WindDirDegrees,DateUTC
12:15 AM,21.6,12.2,67,30.12,10.0,ENE,8.1,-,N/A,,Clear,70,2013-03-18 04:15:00
12:34 AM,21.4,12.2,68,30.11,10.0,ENE,9.2,17.3,N/A,,Clear,70,2013-03-18 04:34:00
12:55 AM,21.2,12.4,69,30.11,10.0,East,11.5,16.1,N/A,,Clear,80,2013-03-18 04:55:00
1:14 AM,21.2,12.7,70,30.10,10.0,East,9.2,-,N/A,,Clear,80,2013-03-18 05:14:00
1:34 AM,21.2,12.9,70,30.10,10.0,East,10.4,16.1,N/A,,Clear,80,2013-03-18 05:34:00
1:55 AM,21.2,13.1,71,30.08,10.0,East,9.2,-,N/A,,Clear,80,2013-03-18 05:55:00
2:14 AM,21.0,13.1,71,30.07,10.0,ENE,8.1,-,N/A,,Clear,70,2013-03-18 06:14:00
2:35 AM,21.0,13.1,71,30.07,10.0,East,8.1,-,N/A,,Clear,80,2013-03-18 06:35:00
2:55 AM,21.0,13.3,72,30.06,10.0,ENE,6.9,-,N/A,,Clear,70,2013-03-18 06:55:00
3:14 AM,20.8,13.3,73,30.05,10.0,East,9.2,-,N/A,,Clear,80,2013-03-18 07:14:00
3:35 AM,20.8,13.1,72,30.04,10.0,East,9.2,-,N/A,,Clear,80,2013-03-18 07:35:00
3:54 AM,20.8,13.1,72,30.03,10.0,East,10.4,18.4,N/A,,Clear,80,2013-03-18 07:54:00
4:15 AM,20.8,13.1,72,30.02,10.0,East,12.7,17.3,N/A,,Clear,80,2013-03-18 08:15:00
4:34 AM,20.7,13.1,73,30.01,10.0,East,10.4,18.4,N/A,,Clear,80,2013-03-18 08:34:00
4:54 AM,20.3,13.1,74,30.01,10.0,East,12.7,18.4,N/A,,Clear,80,2013-03-18 08:54:00
5:15 AM,20.3,13.3,74,29.99,10.0,East,8.1,-,N/A,,Clear,80,2013-03-18 09:15:00
5:34 AM,20.1,13.5,75,29.98,10.0,ENE,8.1,-,N/A,,Clear,70,2013-03-18 09:34:00
5:54 AM,20.1,13.5,75,29.97,10.0,ENE,11.5,17.3,N/A,,Clear,70,2013-03-18 09:54:00
6:15 AM,20.1,13.6,76,29.95,10.0,East,9.2,-,N/A,,Clear,80,2013-03-18 10:15:00
6:34 AM,20.3,13.6,75,29.94,10.0,ENE,8.1,16.1,N/A,,Clear,70,2013-03-18 10:34:00
6:54 AM,20.3,14.0,77,29.94,10.0,East,8.1,-,N/A,,Clear,80,2013-03-18 10:54:00
7:15 AM,20.8,14.0,75,29.91,10.0,ENE,11.5,18.4,N/A,,Clear,70,2013-03-18 11:15:00
7:34 AM,20.8,14.4,76,29.90,10.0,East,11.5,16.1,N/A,,Clear,80,2013-03-18 11:34:00
7:55 AM,21.0,14.5,76,29.88,10.0,ENE,10.4,17.3,N/A,,Clear,70,2013-03-18 11:55:00
8:14 AM,21.0,14.7,77,29.87,10.0,ENE,11.5,16.1,N/A,,Clear,70,2013-03-18 12:14:00
8:35 AM,21.7,15.3,76,29.86,10.0,ENE,9.2,16.1,N/A,,Clear,70,2013-03-18 12:35:00
8:54 AM,23.4,15.8,73,29.86,10.0,East,13.8,19.6,N/A,,Clear,80,2013-03-18 12:54:00
9:15 AM,24.6,16.5,71,29.85,10.0,East,10.4,18.4,N/A,,Clear,80,2013-03-18 13:15:00
9:34 AM,25.7,17.1,70,29.84,10.0,East,13.8,18.4,N/A,,Clear,90,2013-03-18 13:34:00
9:54 AM,25.9,17.2,70,29.82,10.0,ENE,12.7,20.7,N/A,,Scattered Clouds,70,2013-03-18 13:54:00
10:14 AM,27.5,17.8,67,29.81,10.0,East,12.7,20.7,N/A,,Scattered Clouds,80,2013-03-18 14:14:00
10:35 AM,27.9,18.0,66,29.80,10.0,ENE,12.7,19.6,N/A,,Scattered Clouds,70,2013-03-18 14:35:00
10:54 AM,28.2,18.1,66,29.78,10.0,East,12.7,19.6,N/A,,Mostly Cloudy,80,2013-03-18 14:54:00
11:15 AM,28.0,18.9,68,29.77,3.0,East,10.4,17.3,N/A,Snow,Light Snow,80,2013-03-18 15:15:00
11:34 AM,27.9,20.5,74,29.75,2.0,ENE,10.4,18.4,N/A,Snow,Light Snow,60,2013-03-18 15:34:00
11:54 AM,27.9,21.4,77,29.73,3.0,ENE,16.1,21.9,N/A,Snow,Light Snow,60,2013-03-18 15:54:00
12:14 PM,28.2,22.5,79,29.72,5.0,ENE,11.5,19.6,N/A,Snow,Light Snow,70,2013-03-18 16:14:00
12:34 PM,28.4,22.3,78,29.71,3.0,ENE,12.7,18.4,N/A,Snow,Light Snow,70,2013-03-18 16:34:00
12:55 PM,28.0,23.4,83,29.69,3.0,ENE,11.5,18.4,N/A,,Haze,70,2013-03-18 16:55:00
1:14 PM,28.2,24.3,85,29.68,2.5,East,9.2,20.7,N/A,Snow,Light Snow,80,2013-03-18 17:14:00
1:35 PM,28.9,25.0,85,29.66,2.0,East,11.5,20.7,N/A,,Overcast,80,2013-03-18 17:35:00
1:54 PM,29.1,25.5,86,29.66,5.0,East,12.7,18.4,N/A,Snow,Light Snow,80,2013-03-18 17:54:00
2:15 PM,29.7,25.3,84,29.65,3.0,East,13.8,18.4,N/A,Snow,Light Snow,90,2013-03-18 18:15:00
2:34 PM,29.5,25.5,85,29.63,2.0,East,11.5,20.7,N/A,Snow,Light Snow,80,2013-03-18 18:34:00
2:55 PM,29.5,25.9,86,29.62,2.0,East,12.7,16.1,N/A,Snow,Light Snow,90,2013-03-18 18:55:00
3:14 PM,29.8,26.6,88,29.60,2.0,East,8.1,-,N/A,Snow,Light Snow,80,2013-03-18 19:14:00
3:34 PM,30.0,27.5,90,29.60,1.8,East,8.1,-,N/A,Snow,Light Snow,90,2013-03-18 19:34:00
3:55 PM,30.0,28.4,94,29.60,1.0,East,5.8,-,N/A,Snow,Light Snow,90,2013-03-18 19:55:00
4:14 PM,30.2,28.9,95,29.59,0.5,East,8.1,-,N/A,Snow,Light Snow,90,2013-03-18 20:14:00
4:35 PM,30.2,29.3,96,29.59,1.0,East,9.2,-,N/A,Snow,Light Snow,90,2013-03-18 20:35:00
4:54 PM,30.2,29.3,96,29.58,1.0,East,6.9,-,N/A,Snow,Light Snow,90,2013-03-18 20:54:00
5:14 PM,30.2,29.7,98,29.57,0.8,East,6.9,-,N/A,Snow,Light Snow,90,2013-03-18 21:14:00
5:34 PM,30.7,30.0,97,29.57,1.0,East,5.8,-,N/A,Snow,Light Snow,100,2013-03-18 21:34:00
5:54 PM,30.7,29.8,96,29.56,1.2,East,4.6,-,N/A,Snow,Light Snow,100,2013-03-18 21:54:00
6:15 PM,30.7,29.8,96,29.55,1.2,East,4.6,-,N/A,Snow,Light Snow,100,2013-03-18 22:15:00
6:34 PM,30.7,30.0,97,29.55,1.0,East,4.6,-,N/A,Snow,Light Snow,100,2013-03-18 22:34:00
6:54 PM,30.7,30.2,98,29.55,0.8,ESE,3.5,-,N/A,Snow,Light Snow,120,2013-03-18 22:54:00
7:15 PM,30.9,30.7,99,29.55,1.8,Calm,Calm,-,N/A,Snow,Light Snow,0,2013-03-18 23:15:00
7:34 PM,30.9,30.7,99,29.54,2.5,Calm,Calm,-,N/A,Snow,Light Snow,0,2013-03-18 23:34:00
7:55 PM,30.9,30.7,99,29.54,2.5,Calm,Calm,-,N/A,Snow,Light Snow,0,2013-03-18 23:55:00
8:14 PM,31.1,30.9,99,29.54,2.0,Calm,Calm,-,N/A,Snow,Light Snow,0,2013-03-19 00:14:00
8:34 PM,31.1,31.1,100,29.54,2.0,SE,3.5,-,N/A,Snow,Light Snow,140,2013-03-19 00:34:00
8:54 PM,31.1,31.1,100,29.54,2.0,South,6.9,-,N/A,Snow,Light Snow,170,2013-03-19 00:54:00
9:13 PM,32.0,32.0,100,29.54,5.0,SW,8.1,-,N/A,,Overcast,220,2013-03-19 01:13:00
9:35 PM,32.0,32.0,100,29.54,7.0,SW,8.1,-,N/A,Snow,Light Snow,220,2013-03-19 01:35:00
9:54 PM,32.2,32.0,99,29.54,7.0,SW,11.5,17.3,N/A,Snow,Light Snow,220,2013-03-19 01:54:00
10:14 PM,32.4,31.6,97,29.55,10.0,SW,10.4,19.6,N/A,,Overcast,230,2013-03-19 02:14:00
10:35 PM,32.2,31.1,96,29.55,10.0,SW,10.4,17.3,N/A,,Overcast,230,2013-03-19 02:35:00
10:54 PM,32.2,31.1,96,29.55,10.0,SW,11.5,-,N/A,,Overcast,220,2013-03-19 02:54:00
11:14 PM,32.4,31.6,97,29.55,7.0,SW,11.5,17.3,N/A,,Overcast,230,2013-03-19 03:14:00
11:55 PM,31.6,30.4,95,29.56,2.5,WSW,21.9,33.4,N/A,Snow,Light Snow,240,2013-03-19 03:55:00